This is the latest recevied weather packets stored in our database for station/object DL5ARK. If no packets are shown the sender has not sent any weather packets the latest 1 day(s).
| Time | Temp. | Humidity | Pressure | Rain* | Wind** | Luminosity | Snow |
|---|---|---|---|---|---|---|---|
| 1778072267 | 20° C | 56% | 992.4 hPa | 0 mm | - | - | - |
| 1778072087 | 20.56° C | 56% | 992.4 hPa | 0 mm | - | - | - |
| 1778071907 | 20.56° C | 57% | 992.4 hPa | 0 mm | - | - | - |
| 1778071727 | 20° C | 57% | 992.4 hPa | 0 mm | - | - | - |
| 1778071188 | 19.44° C | 54% | 992.4 hPa | 0 mm | - | - | - |
| 1778071007 | 19.44° C | 54% | 992.6 hPa | 0 mm | - | - | - |
| 1778070827 | 19.44° C | 54% | 992.4 hPa | 0 mm | - | - | - |
| 1778070467 | 21.67° C | 58% | 992.6 hPa | 0 mm | - | - | - |
| 1778070287 | 21.11° C | 59% | 992.4 hPa | 0 mm | - | - | - |
| 1778070108 | 20.56° C | 59% | 992.6 hPa | 0 mm | - | - | - |
| 1778069567 | 19.44° C | 59% | 992.6 hPa | 0 mm | - | - | - |
| 1778069387 | 19.44° C | 59% | 992.6 hPa | 0 mm | - | - | - |
| 1778069207 | 18.33° C | 58% | 992.9 hPa | 0 mm | - | - | - |
| 1778068848 | 17.78° C | 58% | 992.9 hPa | 0 mm | - | - | - |
| 1778068668 | 18.33° C | 59% | 992.9 hPa | 0 mm | - | - | - |
| 1778068487 | 18.33° C | 59% | 992.6 hPa | 0 mm | - | - | - |
| 1778068307 | 17.78° C | 57% | 992.6 hPa | 0 mm | - | - | - |
| 1778068127 | 18.33° C | 56% | 992.6 hPa | 0 mm | - | - | - |
| 1778067587 | 20° C | 62% | 992.6 hPa | 0 mm | - | - | - |
| 1778067227 | 18.89° C | 57% | 992.6 hPa | 0 mm | - | - | - |
| 1778067048 | 18.89° C | 59% | 992.9 hPa | 0 mm | - | - | - |
| 1778066687 | 19.44° C | 62% | 992.6 hPa | 0 mm | - | - | - |
| 1778065968 | 19.44° C | 62% | 992.6 hPa | 0 mm | - | - | - |
| 1778065787 | 19.44° C | 63% | 992.9 hPa | 0 mm | - | - | - |
| 1778065607 | 18.33° C | 60% | 992.9 hPa | 0 mm | - | - | - |
* Rain latest hour (hover to see other rain measurements)
** Current wind speed in m/s (hover to see current wind gust speed)